Dewpoint
16 14 13 14 15 16 13 14 15 16 15 13 12 12 13 14 15 18 21 21 25 32 33 34 38 44 51 56 61 59 59 63 68 68 68 67 66 65 66 66 66 68 70 68
15 13 14 12 12 12 13 12 12 15 17 14 14 13 14 14 16 18 22 23 23 34 35 34 33 35 44 52 60 60 58 60 65 65 63 61 61 62 61 64 66 67 69 69
14 14 14 11 9 9 10 11 11 11 14 14 14 13 13 14 16 17 20 27 30 30 32 33 38 42 45 55 61 60 59 59 60 61 63 63 63 62 64 65 63 68 69 69
14 14 12 11 11 12 9 15 15 17 14 9 16 11 13 13 13 17 17 23 27 28 33 31 33 40 47 55 59 59 61 62 63 62 61 61 58 58 57 64 67 69 69 69
14 14 12 12 19 23 21 23 22 22 20 17 14 12 11 16 13 13 16 15 20 28 32 36 33 34 39 52 54 59 62 61 59 61 60 61 61 62 63 67 67 68 68 69
14 13 20 23 25 27 29 25 23 23 19 17 16 14 13 12 11 13 15 18 17 19 28 32 34 31 37 40 47 49 59 60 59 60 64 62 63 63 65 68 67 67 67 68
12 12 15 28 27 28 24 27 25 19 15 14 15 15 13 13 14 17 19 19 19 18 31 31 28 35 33 38 41 44 54 57 62 61 64 63 63 64 65 68 67 66 66 65
18 16 16 28 27 21 21 29 24 18 19 23 23 16 13 18 14 29 28 24 24 24 23 30 34 31 34 35 36 40 41 54 61 62 66 66 64 69 68 68 67 66 66 66
21 20 20 18 17 18 18 27 31 30 28 25 20 18 21 29 36 36 35 36 36 40 31 27 30 38 38 36 37 38 39 49 63 62 65 67 65 68 68 67 67 66 66 66
25 22 22 20 24 24 23 26 26 30 22 16 16 15 21 32 34 34 34 35 40 43 40 29 32 34 37 37 45 47 53 60 62 63 63 66 68 69 67 67 66 66 66 66
29 27 25 25 22 20 20 30 33 32 27 19 17 20 36 35 34 34 35 34 39 44 42 44 39 50 53 50 52 53 59 62 64 66 67 68 69 69 68 67 67 67 67 67
35 31 25 24 25 24 23 28 31 28 27 28 25 22 36 35 34 36 35 37 40 42 44 46 49 56 60 60 61 61 64 65 65 66 67 68 69 69 69 68 68 68 67 67
37 31 26 21 21 32 30 28 28 29 30 25 23 23 30 37 36 35 38 39 43 42 42 44 54 54 59 59 63 65 64 65 66 67 68 68 67 67 67 67 66 66 65 64
38 34 29 24 24 28 28 28 27 27 25 24 24 24 28 35 35 36 38 41 41 38 39 45 48 55 59 60 64 65 65 67 67 68 67 65 66 66 66 65 64 63 63 61
39 33 32 32 31 29 25 24 23 24 25 24 21 20 21 35 36 36 37 39 39 35 33 37 51 57 61 62 64 65 65 66 66 65 65 65 65 65 65 64 62 61 59 58
40 33 35 31 30 28 24 25 26 24 21 27 25 25 29 33 33 33 33 29 27 30 30 36 56 58 61 61 64 65 64 64 65 64 64 64 63 63 63 61 60 59 60 60
33 34 30 25 27 27 21 25 29 29 31 31 28 31 31 32 30 29 29 29 25 22 26 39 55 58 59 61 63 63 63 63 63 63 62 62 62 61 60 56 59 59 59 59
34 34 32 28 29 21 23 35 32 32 29 33 31 32 36 37 38 39 33 37 35 30 48 54 57 60 61 62 62 62 61 61 60 59 58 57 58 58 56 60 58 60 59 61
38 35 30 25 24 27 26 37 35 34 31 36 36 36 36 37 38 38 42 43 44 48 50 51 58 57 56 60 60 57 57 56 55 55 56 57 58 57 59 59 59 60 60 59
39 38 34 29 24 18 33 37 38 37 29 38 37 36 36 36 35 38 40 41 43 45 53 55 58 61 59 61 57 56 53 53 53 56 57 57 57 58 59 60 60 60 60 61
34 34 29 30 28 29 37 38 38 27 31 38 37 37 36 36 37 38 40 41 44 45 52 57 58 60 62 58 54 52 52 53 56 57 57 57 57 59 59 60 59 59 59 61
32 30 30 32 29 21 39 38 34 38 39 38 38 39 39 40 40 41 40 41 46 50 54 57 58 60 61 57 52 53 53 54 55 55 56 57 58 59 59 59 60 60 60 61
29 36 33 33 31 39 41 40 43 42 41 41 40 42 43 44 43 41 41 45 48 53 57 59 60 61 61 55 55 54 54 54 55 56 55 56 57 58 59 58 60 59 60 60
35 39 34 36 37 39 41 42 40 42 42 42 42 43 45 44 45 45 46 48 50 54 57 60 61 59 59 56 55 55 55 56 55 56 57 57 59 59 59 59 60 59 60 60
35 40 39 38 38 40 41 39 41 43 43 41 43 45 43 44 43 45 46 49 52 55 59 60 61 61 56 55 55 56 56 56 56 56 57 58 59 58 56 53 55 59 56 58
41 40 36 33 39 39 37 40 43 42 41 43 44 44 45 45 46 48 49 52 54 56 60 59 61 58 56 55 56 56 56 56 56 56 56 58 59 58 57 56 54 42 43 42
Lifted_Index
8 8 8 7 7 7 7 7 7 7 7 6 6 6 7 7 7 6 6 5 5 4 3 2 1 0 -0 -1 -2 -2 -2 -3 -5 -5 -5 -4 -4 -4 -4 -5 -5 -5 -6 -6
8 8 7 7 7 7 7 7 7 7 6 6 6 6 7 7 7 6 6 6 5 4 3 2 1 0 -0 -2 -3 -3 -2 -2 -3 -4 -3 -3 -3 -3 -4 -4 -4 -5 -6 -6
8 7 7 7 7 7 6 6 6 6 6 6 6 6 6 7 7 7 6 6 5 5 4 4 3 1 -0 -2 -3 -3 -2 -1 -1 -2 -2 -2 -2 -2 -3 -3 -4 -5 -6 -6
7 7 7 7 6 6 6 5 5 6 6 6 5 5 6 7 6 6 6 6 5 5 5 4 3 3 1 -1 -2 -2 -1 -1 -1 -1 -1 -1 -2 -2 -2 -3 -4 -5 -6 -7
6 6 6 5 5 4 4 4 4 4 5 5 5 5 6 7 7 6 6 6 5 5 4 4 4 3 2 1 -0 -1 -1 -1 -1 -1 -1 -1 -2 -2 -3 -4 -5 -5 -6 -6
4 4 4 4 3 3 2 2 2 2 2 3 4 4 5 7 7 6 6 6 5 4 4 3 4 4 3 3 2 1 0 -0 -1 -1 -1 -2 -2 -3 -4 -5 -5 -5 -6 -6
3 3 2 2 2 1 1 0 0 1 1 1 2 2 4 5 5 5 5 5 5 4 4 3 4 4 4 3 3 3 2 1 -0 -1 -2 -2 -2 -3 -4 -5 -5 -5 -5 -5
2 2 2 1 1 1 0 -0 -0 -0 0 1 1 1 3 3 3 3 4 4 4 4 4 4 4 4 4 3 3 4 3 2 -0 -2 -3 -3 -3 -4 -4 -5 -6 -5 -5 -5
2 2 2 1 1 1 0 0 -0 -0 0 0 1 1 1 1 1 1 2 3 4 4 3 4 4 4 4 4 4 3 3 2 -1 -2 -3 -4 -4 -4 -5 -5 -6 -5 -5 -5
2 2 1 1 1 0 0 -0 -0 -0 -0 0 1 1 0 0 0 0 1 2 3 2 2 2 3 2 2 3 3 2 1 -0 -2 -3 -3 -4 -4 -5 -5 -6 -6 -5 -5 -4
1 1 2 1 1 0 -0 -0 -0 -0 -0 0 0 1 0 0 0 0 0 1 1 0 1 1 1 -1 -1 -0 0 0 -1 -2 -3 -4 -4 -5 -5 -6 -6 -6 -6 -5 -5 -4
1 1 2 2 1 0 0 -0 -0 -0 -0 0 0 0 -0 0 1 1 1 1 0 -0 1 1 -1 -3 -4 -3 -3 -3 -3 -4 -5 -5 -5 -6 -6 -6 -6 -6 -5 -5 -5 -5
1 2 2 1 1 0 0 0 0 0 0 -0 -0 -0 -0 0 1 2 1 1 0 1 2 2 0 -2 -4 -5 -5 -5 -5 -5 -6 -6 -6 -6 -6 -6 -6 -5 -5 -5 -4 -4
1 1 1 1 0 0 1 1 1 0 0 -0 -0 -0 -0 0 1 2 2 1 1 2 3 3 1 -2 -4 -6 -6 -6 -6 -6 -6 -6 -6 -6 -6 -6 -5 -5 -4 -3 -3 -2
1 1 1 1 0 1 1 1 1 0 0 -0 -0 -0 -0 0 1 2 2 2 3 3 3 2 -0 -3 -5 -5 -6 -6 -6 -6 -6 -5 -5 -5 -5 -4 -4 -3 -2 -2 -1 -1
1 1 1 1 1 1 1 1 1 0 -0 -0 -0 -0 -0 -0 0 1 2 3 4 4 4 2 -2 -4 -5 -4 -5 -5 -6 -5 -5 -5 -4 -4 -4 -3 -3 -2 -1 -0 -0 0
1 1 1 1 1 1 1 1 0 0 -0 -0 -1 -1 -1 -1 -1 0 1 2 4 4 3 0 -3 -4 -3 -3 -4 -5 -5 -5 -4 -4 -4 -3 -3 -2 -1 -0 0 0 0 0
1 2 1 1 1 1 1 1 0 0 0 -0 -0 -1 -1 -1 -1 -1 0 1 2 3 1 -1 -2 -2 -2 -2 -4 -5 -5 -4 -4 -3 -3 -2 -1 -1 -0 0 1 1 0 0
1 1 1 1 1 1 1 1 1 1 1 0 0 0 0 0 -0 -0 -0 0 1 1 0 -1 -2 -1 -1 -2 -4 -4 -3 -3 -2 -2 -1 -1 -0 0 0 0 0 0 0 0
1 1 1 1 1 1 1 1 1 1 1 1 1 2 2 2 2 1 0 1 1 1 0 -1 -1 -1 -1 -2 -3 -3 -2 -1 -1 -1 -1 -0 0 0 0 0 0 0 0 0
1 1 1 1 1 1 1 1 1 1 1 2 2 3 3 4 3 2 1 2 3 2 0 -1 -1 -2 -2 -3 -2 -1 -1 -1 -1 -0 -0 0 0 0 0 0 1 1 0 0
1 1 1 1 0 1 1 2 2 2 3 3 3 4 5 5 4 3 3 3 3 2 -0 -1 -2 -2 -3 -2 -1 -1 -0 -0 -0 -0 -0 0 0 0 0 1 1 0 0 -0
1 1 1 0 1 1 2 2 3 4 4 4 4 5 5 5 4 4 4 4 2 1 -1 -2 -2 -2 -2 -2 -1 -1 -0 0 0 -0 -0 0 0 0 1 1 1 0 -0 -0
1 1 0 1 1 1 2 3 4 4 4 5 5 5 6 5 4 4 4 3 1 -0 -1 -2 -2 -2 -2 -2 -1 -1 -0 -0 0 0 0 0 0 0 1 1 0 0 -0 -0
1 1 1 1 1 2 2 3 4 4 4 4 4 5 6 6 5 4 3 2 0 -1 -1 -1 -2 -2 -2 -2 -1 -1 -1 -0 -0 0 0 -0 -0 0 0 0 -0 -0 -0 -0
0 1 1 1 1 2 3 4 4 4 4 4 4 5 6 6 5 4 3 1 -1 -1 -1 -1 -2 -2 -3 -3 -2 -1 -1 -0 0 0 0 -0 -0 -0 -0 -0 -0 -0 -0 -0